KA8UPW-1 Weather Reports


time (UTC)temp
C
wind
direction
speed
KPH
gust
KPH
rain 1hr
cm
rain 24hr
cm
rain mn
cm
humidity
%
barometer
mb
20260506212704 12 0 0.0 0.0 0.00 2.34 0.74 55 1010.6
20260506212021 12 0 0.0 0.0 0.00 2.34 0.74 56 1010.5
20260506210903 12 0 0.0 0.0 0.00 2.36 0.74 54 1010.4
20260506210005 12 0 0.0 0.0 0.00 2.36 0.74 55 1010.3
20260506205403 12 0 0.0 0.0 0.00 2.36 0.74 55 1010.2
20260506204720 12 0 0.0 0.0 0.00 2.36 0.74 56 1010.2
20260506203604 12 0 0.0 0.0 0.00 2.36 0.74 56 1010.0
20260506202703 12 0 0.0 0.0 0.00 2.39 0.74 53 1010.4
20260506201803 12 0 0.0 0.0 0.00 2.44 0.74 54 1010.4
20260506200903 12 0 0.0 0.0 0.00 2.44 0.74 57 1010.5
20260506200004 12 0 0.0 0.0 0.00 2.44 0.74 53 1010.4
20260506195405 12 0 0.0 0.0 0.00 2.44 0.74 55 1010.3
20260506194504 12 0 0.0 0.0 0.00 2.44 0.74 56 1010.3
20260506193604 12 0 0.0 0.0 0.00 2.44 0.74 53 1010.1
20260506192703 12 0 0.0 0.0 0.00 2.46 0.74 56 1010.3
20260506191804 12 0 0.0 0.0 0.00 2.49 0.74 57 1010.4
20260506191120 12 0 0.0 0.0 0.00 2.49 0.74 57 1010.3
20260506190004 12 0 0.0 0.0 0.00 2.49 0.74 55 1010.1
20260506185404 12 0 0.0 0.0 0.00 2.49 0.74 57 1010.1
20260506184503 12 0 0.0 0.0 0.00 2.49 0.74 55 1010.4
20260506183604 12 0 0.0 0.0 0.00 2.49 0.74 55 1010.4
20260506182703 12 0 0.0 0.0 0.00 2.49 0.74 55 1010.4
20260506181803 13 0 0.0 0.0 0.00 2.49 0.74 52 1010.2
20260506180903 13 0 0.0 0.0 0.00 2.49 0.74 55 1010.2
20260506180005 13 0 0.0 0.0 0.00 2.49 0.74 55 1010.1
20260506175403 13 0 0.0 0.0 0.00 2.49 0.74 57 1010.2
20260506174716 13 0 0.0 0.0 0.00 2.49 0.74 57 1010.1
20260506173819 13 0 0.0 0.0 0.00 2.49 0.74 57 1010.3
20260506172704 13 0 0.0 0.0 0.00 2.49 0.74 57 1010.3
20260506171803 13 0 0.0 0.0 0.00 2.49 0.74 58 1009.9
20260506170903 14 0 0.0 0.0 0.00 2.49 0.74 57 1010.1
20260506170005 13 0 0.0 0.0 0.00 2.49 0.74 60 1009.9
20260506165625 13 0 0.0 0.0 0.00 2.49 0.74 59 1009.9
20260506164504 13 0 0.0 0.0 0.00 2.49 0.74 59 1010.0
20260506163603 12 0 0.0 0.0 0.00 2.49 0.74 61 1010.3
20260506162703 13 0 0.0 0.0 0.00 2.49 0.74 63 1010.4
20260506161803 12 0 0.0 0.0 0.00 2.49 0.74 67 1010.3
20260506161116 12 0 0.0 0.0 0.00 2.49 0.74 65 1010.2
20260506160219 12 0 0.0 0.0 0.00 2.49 0.74 65 1010.0
20260506155403 12 0 0.0 0.0 0.00 2.49 0.74 67 1009.9
20260506154505 11 0 0.0 0.0 0.00 2.49 0.74 71 1009.8
20260506153603 11 0 0.0 0.0 0.00 2.49 0.74 74 1009.7
20260506152923 11 0 0.0 0.0 0.00 2.49 0.74 71 1009.8
20260506151804 11 0 0.0 0.0 0.00 2.49 0.74 73 1009.6
20260506150904 11 0 0.0 0.0 0.00 2.49 0.74 76 1009.6
20260506150003 11 0 0.0 0.0 0.00 2.49 0.74 75 1009.7
20260506145403 10 0 0.0 0.0 0.00 2.49 0.74 75 1009.5
20260506144503 10 0 0.0 0.0 0.00 2.49 0.74 76 1009.3
20260506143603 10 0 0.0 0.0 0.00 2.49 0.74 79 1009.2
20260506142703 9 0 0.0 0.0 0.00 2.49 0.74 80 1008.9
20260506141803 8 0 0.0 0.0 0.00 2.49 0.74 82 1008.9
20260506141118 8 0 0.0 0.0 0.00 2.49 0.74 82 1009.0
20260506140220 8 0 0.0 0.0 0.00 2.49 0.74 83 1008.9
20260506135404 8 0 0.0 0.0 0.00 2.49 0.74 84 1009.2
20260506134503 7 0 0.0 0.0 0.00 2.49 0.74 86 1009.0
20260506133603 7 0 0.0 0.0 0.00 2.49 0.74 89 1009.0
20260506132919 7 0 0.0 0.0 0.00 2.49 0.74 90 1008.9
20260506131803 6 0 0.0 0.0 0.00 2.49 0.74 92 1008.8
20260506130903 6 0 0.0 0.0 0.00 2.49 0.74 93 1008.7
20260506130008 6 0 0.0 0.0 0.00 2.49 0.74 94 1008.6
20260506125403 6 0 0.0 0.0 0.00 2.49 0.74 94 1008.5
20260506124503 6 0 0.0 0.0 0.00 2.49 0.74 94 1008.2
20260506123603 6 0 0.0 0.0 0.03 2.49 0.74 94 1008.2
20260506122703 6 0 0.0 0.0 0.03 2.49 0.74 95 1008.3
20260506121804 6 0 0.0 0.0 0.03 2.49 0.74 95 1007.8
20260506120903 6 0 0.0 0.0 0.03 2.49 0.74 95 1007.8
20260506120222 6 0 0.0 0.0 0.03 2.49 0.74 95 1007.6
20260506115404 6 0 0.0 0.0 0.03 2.49 0.74 95 1007.5
20260506114504 6 0 0.0 0.0 0.03 2.49 0.74 95 1007.4
20260506113603 6 0 0.0 0.0 0.00 2.46 0.71 95 1007.2
20260506112703 6 0 0.0 0.0 0.00 2.46 0.71 95 1007.3
20260506111803 6 0 0.0 0.0 0.00 2.46 0.71 95 1007.3
20260506110904 6 0 0.0 0.0 0.00 2.46 0.71 95 1007.4
20260506110222 6 0 0.0 0.0 0.00 2.46 0.71 95 1007.5
20260506105404 6 0 0.0 0.0 0.00 2.46 0.71 95 1006.7
20260506104504 6 0 0.0 0.0 0.00 2.46 0.71 95 1006.4
20260506103603 6 0 0.0 0.0 0.00 2.46 0.71 95 1006.7
20260506102703 6 0 0.0 0.0 0.00 2.46 0.71 95 1006.8
20260506101803 6 0 0.0 0.0 0.00 2.46 0.71 95 1006.3
20260506100903 6 0 0.0 0.0 0.00 2.49 0.71 95 1006.4
20260506100005 6 0 0.0 0.0 0.00 2.51 0.71 95 1006.2
20260506095403 6 0 0.0 0.0 0.00 2.51 0.71 95 1006.6
20260506094504 6 0 0.0 0.0 0.03 2.51 0.71 95 1005.9
20260506093604 6 0 0.0 0.0 0.03 2.51 0.71 95 1005.2
20260506092921 6 0 0.0 0.0 0.03 2.51 0.71 95 1005.2
20260506091804 6 0 0.0 0.0 0.05 2.51 0.71 95 1005.5
20260506090904 6 0 0.0 0.0 0.05 2.51 0.71 95 1005.8
20260506090005 6 0 0.0 0.0 0.05 2.51 0.71 95 1006.4
20260506085404 6 0 0.0 0.0 0.05 2.51 0.71 95 1006.5
20260506084503 7 0 0.0 0.0 0.05 2.49 0.69 95 1006.4
20260506083603 7 0 0.0 0.0 0.08 2.49 0.69 96 1006.4
20260506082703 7 0 0.0 0.0 0.08 2.49 0.69 96 1006.2
20260506081803 6 0 0.0 0.0 0.08 2.46 0.66 96 1006.2
20260506080904 6 0 0.0 0.0 0.10 2.46 0.66 95 1006.0
20260506080219 6 0 0.0 0.0 0.13 2.46 0.66 95 1005.9
20260506072703 6 0 0.0 0.0 0.20 2.41 0.61 95 1006.4
20260506071803 7 0 0.0 0.0 0.20 2.39 0.58 95 1006.2
20260506070904 7 0 0.0 0.0 0.23 2.36 0.56 95 1006.1
20260506061803 7 0 0.0 0.0 0.18 2.21 0.38 95 1005.9
20260506061118 7 0 0.0 0.0 0.18 2.18 0.36 95 1005.9
20260506050903 7 0 0.0 0.0 0.18 2.01 0.18 95 1006.3
20260506044503 7 0 0.0 0.0 0.15 1.96 0.13 95 1006.2
20260506043603 7 0 0.0 0.0 0.13 1.91 0.08 95 1006.1
20260506042704 7 0 0.0 0.0 0.15 1.91 0.08 95 1005.9
20260506041804 7 0 0.0 0.0 0.15 1.85 0.03 95 1005.9
20260506040903 7 0 0.0 0.0 0.15 1.83 0.00 95 1005.9
20260506040004 7 0 0.0 0.0 0.18 1.83 0.00 95 1005.9
20260506035403 7 0 0.0 0.0 0.18 1.80 1.80 95 1006.1
20260506034503 8 0 0.0 0.0 0.20 1.80 1.80 95 1006.2
20260506033603 8 0 0.0 0.0 0.20 1.78 1.78 95 1006.5
20260506032703 8 0 0.0 0.0 0.20 1.75 1.75 95 1006.6
20260506031805 8 0 0.0 0.0 0.20 1.70 1.70 95 1006.8
20260506030903 8 0 0.0 0.0 0.20 1.68 1.68 95 1006.9
20260506030222 8 0 0.0 0.0 0.23 1.65 1.65 95 1007.1
20260506025619 8 0 0.0 0.0 0.25 1.65 1.65 95 1007.1
20260506024503 8 0 0.0 0.0 0.25 1.60 1.60 95 1007.3
20260506023604 8 0 0.0 0.0 0.28 1.57 1.57 95 1007.3
20260506022703 8 0 0.0 0.0 0.25 1.55 1.55 95 1007.3
20260506021803 8 0 0.0 0.0 0.25 1.50 1.50 95 1007.2
20260506020904 8 0 0.0 0.0 0.25 1.47 1.47 95 1007.1
20260506020003 8 0 0.0 0.0 0.25 1.42 1.42 95 1006.9
20260506015404 9 0 0.0 0.0 0.25 1.37 1.37 95 1006.8
20260506014504 9 0 0.0 0.0 0.30 1.35 1.35 94 1006.6
20260506013819 9 0 0.0 0.0 0.33 1.32 1.32 95 1006.4
20260506012703 9 0 0.0 0.0 0.38 1.30 1.30 95 1006.3
20260506011803 9 0 0.0 0.0 0.41 1.24 1.24 95 1006.3
20260506010903 9 0 0.0 0.0 0.43 1.22 1.22 94 1006.2
20260506010218 9 0 0.0 0.0 0.41 1.17 1.19 94 1006.1
20260506005404 9 0 0.0 0.0 0.36 1.12 1.12 94 1006.2
20260506004504 10 0 0.0 0.0 0.28 1.04 1.04 94 1006.2
20260506003603 10 0 0.0 0.0 0.23 0.99 0.99 94 1006.1
20260506002703 10 0 0.0 0.0 0.15 0.91 0.91 94 1006.0
20260506001804 10 0 0.0 0.0 0.10 0.84 0.84 94 1005.9
20260506000903 11 0 0.0 0.0 0.08 0.79 0.79 94 1005.6
20260506000226 11 0 0.0 0.0 0.08 0.76 0.76 93 1005.6
20260505235403 11 0 0.0 0.0 0.13 0.76 0.76 94 1005.4
20260505234504 12 0 0.0 0.0 0.15 0.76 0.76 94 1005.1
20260505233603 12 0 0.0 0.0 0.18 0.76 0.76 94 1005.1
20260505232703 12 0 0.0 0.0 0.23 0.76 0.76 94 1005.2
20260505231804 12 0 0.0 0.0 0.23 0.74 0.74 94 1005.6
20260505231117 12 0 0.0 0.0 0.23 0.74 0.74 93 1005.7
20260505230003 12 0 0.0 0.0 0.18 0.66 0.66 93 1005.9
20260505225621 12 0 0.0 0.0 0.15 0.64 0.64 93 1005.9
20260505224503 12 0 0.0 0.0 0.20 0.61 0.61 93 1005.8
20260505223604 13 0 0.0 0.0 0.30 0.58 0.58 93 1005.9
20260505222703 13 0 0.0 0.0 0.30 0.53 0.53 94 1005.9
20260505221803 13 0 0.0 0.0 0.28 0.51 0.51 93 1006.0
20260505220904 13 0 0.0 0.0 0.30 0.51 0.51 93 1005.9
20260505220004 13 0 0.0 0.0 0.28 0.48 0.48 93 1005.8
20260505215403 13 0 0.0 0.0 0.25 0.46 0.46 93 1005.9
20260505214504 13 0 0.0 0.0 0.20 0.41 0.41 93 1005.8
20260505213604 13 0 0.0 0.0 0.08 0.28 0.28 93 1005.8